GABSDFFD

Guest
Details From GABS - Bamako Senou
To DFFD - Ouagadougou
Flight Number -
Tags Generated
Created
Modified
Stats Distance 378 nm / 701 km
Max Altitude 0 ft / 0 m
Waypoints 3
Social Downloads 4
Likes 0
Share VATSIM

Download

Looking for another format? Having issues loading an existing format? Contact us
Advertisement - Login to hide

Notes

Generated

Route

GABS OUA DFFD

ID Type Via Altitude Latitude Longitude Leg Dist Tot Dist Heading (true) Name
O GABS APT - 0 ft / 0 m 12.52683˚ -7.96035˚ - 0 nm - -
OUA NDB - 0 ft / 0 m 12.33400˚ -1.52519˚ 377 nm 377 nm 91° / 92° OUAGADOUGOU NDB
O DFFD APT - 0 ft / 0 m 12.34428˚ -1.51578˚ 0 nm 378 nm 42° / 42° -

Altitude Profile

Advertisement - Login to hide

Weather


0- 5 10 15 20 25 30 35+ Temperature / ° C

Clouds and Precipitation
Forecast for 2018-05-22 18:00 UTC. Updated an hour ago

Ground ~20,000 ft ~40,000 ft Winds

GABS

Details ICAO GABS (BKO)
Name Bamako Senou
Region Mali
Timezone Africa/Bamako (UTC+0.0)
Stats Elevation 1,246 ft / 380 m (AMSL)
Location 12.533544° -7.949943°
Runways 1
Magnetic Variation 4.117° W

METAR

GABS 221830Z 11004KT CAVOK 37/15 Q1009 NOSIG

Decode

TAF

TAF GABS 221700Z 2218/2324 20006KT 9999 SCT030 TEMPO 2218/2306 TSRA BKN030 FEW040CB PROB40 TEMPO 2316/2324 10015G35KT 4000 TSRA BKN030 FEW040CB

Decode

Departure Runways

ID Width Length Bearing (true) Bearing (mag) Surface Threshold Offset Overrun Length
06 148 ft / 45 m 8,888 ft / 2,709 m 56.51° 60.63° Asphalt 0 ft / 0 m 327 ft / 100 m
24 148 ft / 45 m 8,888 ft / 2,709 m 236.51° 240.63° Asphalt 0 ft / 0 m 327 ft / 100 m

DFFD

Details ICAO DFFD (OUA)
Name OUAGADOUGOU
Region Burkina Faso
Timezone Africa/Ouagadougou (UTC+0.0)
Stats Elevation 1,037 ft / 316 m (AMSL)
Location 12.352189° -1.511605°
Runways 2
Magnetic Variation 2.246° W

METAR

DFFD 221800Z 24002KT CAVOK 38/18 Q1008 NOSIG

Decode

TAF

TAF DFFD 221700Z 2218/2324 22010KT CAVOK TEMPO 2220/2306 VRB25G40KT 2500 SQ BLSA TSRA SCT026 FEW036CB TEMPO 2315/2324 TS FEW026 FEW036CB

Decode

Destination Runways

ID Width Length Bearing (true) Bearing (mag) Surface Threshold Offset Overrun Length
04L 148 ft / 45 m 9,968 ft / 3,038 m 33.56° 35.81° Asphalt 0 ft / 0 m 0 ft / 0 m
04R 98 ft / 30 m 6,289 ft / 1,917 m 35.23° 37.48° Gravel 0 ft / 0 m 0 ft / 0 m
22L 98 ft / 30 m 6,289 ft / 1,917 m 215.23° 217.48° Gravel 0 ft / 0 m 0 ft / 0 m
22R 148 ft / 45 m 9,968 ft / 3,038 m 213.57° 215.82° Asphalt 0 ft / 0 m 0 ft / 0 m

Approach Navaids

Runway Type Ident Frequency Range Bearing (true) Bearing (mag) Slope Elevation
04L Localiser OG 110.10 MHz 18 nm / 33 km 33.54° 35.78° - 977 ft / 298 m (AMSL)
04L Glidescope OG 110.10 MHz 10 nm / 19 km 33.57° 35.81° 3.00° 1,054 ft / 321 m (AMSL)
04L DME OG 110.10 MHz 18 nm / 33 km - - - 1,054 ft / 321 m (AMSL)

Popular Alternatives